This is the latest recevied weather packets stored in our database for station/object DG1ROH. If no packets are shown the sender has not sent any weather packets the latest 1 day(s).
| Time | Temp. | Humidity | Pressure | Rain* | Wind** | Luminosity | Snow |
|---|---|---|---|---|---|---|---|
| 1777988938 | 16.67° C | 83% | 1008.1 hPa | 0 mm | 0.89 m/s, 0° | 109 W/m² | - |
| 1777988819 | 16.67° C | 83% | 1008.2 hPa | 0 mm | 0.89 m/s, 344° | 105 W/m² | - |
| 1777988699 | 16.67° C | 83% | 1008.2 hPa | 0 mm | 0.89 m/s, 38° | 104 W/m² | - |
| 1777988579 | 16.67° C | 83% | 1008.2 hPa | 0 mm | 0.45 m/s, 12° | 97 W/m² | - |
| 1777988457 | 16.67° C | 83% | 1008.2 hPa | 0 mm | 0.45 m/s, 351° | 95 W/m² | - |
| 1777988341 | 16.67° C | 83% | 1008.2 hPa | 0 mm | 0.45 m/s, 349° | 91 W/m² | - |
| 1777988221 | 16.67° C | 83% | 1008.2 hPa | 0 mm | 0.45 m/s, 55° | 84 W/m² | - |
| 1777988100 | 16.67° C | 83% | 1008.2 hPa | 0 mm | 0.45 m/s, 71° | 90 W/m² | - |
| 1777987973 | 16.67° C | 83% | 1008.2 hPa | 0 mm | 0.45 m/s, 71° | 98 W/m² | - |
| 1777987857 | 16.67° C | 82% | 1008.3 hPa | 0 mm | 0.45 m/s, 77° | 104 W/m² | - |
| 1777987730 | 16.67° C | 82% | 1008.2 hPa | 0 mm | 0.89 m/s, 51° | 121 W/m² | - |
| 1777987611 | 16.67° C | 82% | 1008.3 hPa | 0 mm | 0.89 m/s, 72° | 137 W/m² | - |
| 1777987491 | 16.67° C | 82% | 1008.2 hPa | 0 mm | 0.89 m/s, 71° | 167 W/m² | - |
| 1777987370 | 16.67° C | 82% | 1008.2 hPa | 0 mm | 1.34 m/s, 51° | 181 W/m² | - |
| 1777987251 | 16.67° C | 81% | 1008.3 hPa | 0 mm | 1.34 m/s, 26° | 185 W/m² | - |
| 1777987131 | 17.22° C | 81% | 1008.2 hPa | 0 mm | 0.89 m/s, 34° | 204 W/m² | - |
| 1777987011 | 17.22° C | 81% | 1008.2 hPa | 0 mm | 0.89 m/s, 98° | 258 W/m² | - |
| 1777986889 | 17.22° C | 82% | 1008.1 hPa | 0 mm | 0.89 m/s, 306° | 267 W/m² | - |
| 1777986766 | 17.22° C | 82% | 1008.2 hPa | 0 mm | 0.89 m/s, 320° | 267 W/m² | - |
| 1777986656 | 17.22° C | 82% | 1008.2 hPa | 0 mm | 0.89 m/s, 350° | 308 W/m² | - |
| 1777986525 | 17.22° C | 82% | 1008.3 hPa | 0 mm | 0.89 m/s, 36° | 297 W/m² | - |
| 1777986405 | 17.22° C | 81% | 1008.2 hPa | 0 mm | 0.89 m/s, 36° | 320 W/m² | - |
| 1777986285 | 17.78° C | 81% | 1008.3 hPa | 0 mm | 0.89 m/s, 31° | 320 W/m² | - |
| 1777986165 | 17.78° C | 82% | 1008.3 hPa | 0 mm | 0.89 m/s, 314° | 302 W/m² | - |
| 1777986045 | 17.22° C | 83% | 1008.4 hPa | 0 mm | 0.45 m/s, 46° | 216 W/m² | - |
* Rain latest hour (hover to see other rain measurements)
** Current wind speed in m/s (hover to see current wind gust speed)